Tracking 19170 objects as of 23-May-2018
HD Live streaming from Space Station
objects crossing your sky now

INTELSAT 705

Track INTELSAT 705 now!
INTELSAT 705 is classified as:


NORAD ID: 23528
Int'l Code: 1995-013A
Perigee: 36,088.6 km
Apogee: 36,236.3 km
Inclination: 6.5 °
Period: 1,455.0 minutes
Semi major axis: 42533 km
RCS: 12.1482 m2 (large)
Launch date: March 22, 1995
Source: International Telecommunications Satellite Organization (ITSO)
Launch site: AIR FORCE EASTERN TEST RANGE (AFETR)

42 C-band, 24 Ku-band; broadcasting, business services, direct-to-home TV broadcasting, telecommunications, VSATnetworks; Atlantic Ocean region.
aabbcc
Your satellite tracking list
Your tracking list is empty




NASA's NSSDC Master Catalog

Two Line Element Set (TLE):
1 23528U 95013A   18142.01678970 +.00000033 +00000-0 +00000-0 0  9998
2 23528 006.4912 055.9018 0017359 019.9190 244.8247 00.98970812084351
Source of the keplerian elements: AFSPC